[[{"header":{"parameterUnit":"m.s-1","parameterCategory":1,"la1":30.2991,"la2":30.254,"lo1":-89.0895,"lo2":-89.0444,"dy":0.0017,"dx":0.0017,"nx":28,"ny":28,"refTime":"2024-12-02T09:00:00:Z","depth":0,"parameterNumber":2,"parameterNumberName":"U-component_of_WINDS"},"data":[0,0,0,0,0,0,0,0,0,0,0,0,0,0,0,0,0,0,0,0,0,0,0,0,0,0,0,0,0,0,0,0,0,0,0,0,0,0,0,0,0,0,0,0,0,0,0,0,0,0,0,0,0,0,0,0,0,0,-0.7033,-0.7033,0,-0.7043,-0.7043,-0.7043,-0.7018,-0.7018,-0.7017,-0.7016,-0.7027,-0.7028,-0.7029,0,0,0,0,0,0,0,0,0,0,0,0,0,-0.6991,-0.6992,-0.7032,-0.7033,-0.7033,-0.7043,-0.7043,-0.7043,-0.7019,-0.7018,-0.7017,-0.7016,-0.7027,-0.7028,-0.7029,0,0,0,0,0,0,0,0,0,0,0,0,0,-0.7006,-0.6992,-0.7032,-0.7022,-0.7021,-0.7043,-0.7043,-0.7043,-0.7019,-0.7018,-0.7016,-0.7015,-0.7026,-0.7028,-0.7029,-0.7063,0,0,-0.7034,-0.7035,0,0,0,0,0,0,0,0,-0.7005,-0.7007,-0.7023,-0.7022,-0.7022,-0.7028,-0.7032,-0.705,-0.7019,-0.702,-0.7016,-0.7015,-0.7028,-0.703,-0.7034,-0.7063,-0.7064,-0.7034,-0.7035,-0.7036,-0.7036,0,0,0,0,0,0,0,-0.7004,-0.7007,-0.7037,-0.7023,-0.7022,-0.7016,-0.7017,-0.7036,-0.7031,-0.7019,-0.7018,-0.7019,-0.7028,-0.7033,-0.7034,-0.7064,-0.7034,-0.7036,-0.7037,-0.7037,-0.712,-0.7121,0,0,0,0,0,0,-0.7004,-0.7006,-0.7036,-0.7037,-0.701,-0.7018,-0.7019,-0.7027,-0.703,-0.703,-0.702,-0.7018,-0.7031,-0.7033,-0.7035,-0.7074,-0.7036,-0.7037,-0.7038,-0.7118,-0.712,-0.7121,0,0,0,0,0,0,-0.7004,-0.7007,-0.7036,-0.7021,-0.7024,-0.702,-0.703,-0.7028,-0.7033,-0.7031,-0.703,-0.7026,-0.703,-0.7032,-0.7056,-0.7074,-0.7038,-0.7039,-0.7117,-0.7119,-0.7121,-0.7152,0,0,0,0,0,0,-0.7003,-0.7007,-0.702,-0.7022,-0.7025,-0.7057,-0.7031,-0.7029,-0.7036,-0.7033,-0.7036,-0.7036,-0.7029,-0.7053,-0.7057,-0.7075,-0.7041,-0.7115,-0.7118,-0.712,-0.7149,-0.7155,-0.7159,0,0,0,0,0,-0.7001,-0.7029,-0.7021,-0.7025,-0.7041,-0.7058,-0.706,-0.7052,-0.7037,-0.705,-0.7048,-0.7036,-0.7071,-0.7056,-0.706,-0.7079,-0.7114,-0.7117,-0.712,-0.7147,-0.7154,-0.7159,0,0,0,0,0,0,-0.703,-0.7029,-0.702,-0.7049,-0.7054,-0.7054,-0.707,-0.7059,-0.7069,-0.7066,-0.7055,-0.7056,-0.7081,-0.7082,-0.7066,-0.7111,-0.709,-0.7094,-0.7109,-0.7116,-0.712,-0.712,-0.7042,0,0,0,0,0,-0.7039,-0.7053,-0.7051,-0.7077,-0.708,-0.7074,-0.7082,-0.7075,-0.7079,-0.7081,-0.7081,-0.7087,-0.7099,-0.7107,-0.7118,-0.7149,-0.7149,-0.7164,-0.7169,-0.7173,-0.7176,-0.7193,-0.7199,-0.7131,-0.7131,-0.713,0,0,-0.7059,-0.706,-0.707,-0.7083,-0.7086,-0.71,-0.7076,-0.7093,-0.7104,-0.7084,-0.7106,-0.7106,-0.7111,-0.7138,-0.715,-0.714,-0.7195,-0.7176,-0.718,-0.7181,-0.7196,-0.7203,-0.7208,-0.7132,-0.7132,-0.7132,0,0,-0.7104,-0.7106,-0.7127,-0.713,-0.7135,-0.7131,-0.7136,-0.7138,-0.7137,-0.7159,-0.7144,-0.7156,-0.7178,-0.7182,-0.7187,-0.7231,-0.722,-0.7235,-0.7261,-0.7277,-0.7283,-0.7287,-0.7304,-0.731,-0.7238,-0.7238,-0.7238,0,-0.7128,-0.715,-0.714,-0.7157,-0.7163,-0.7145,-0.7167,-0.717,-0.7178,-0.7183,-0.7171,-0.7197,-0.7199,-0.7227,-0.7237,-0.7242,-0.7247,-0.7235,-0.7283,-0.7287,-0.7292,-0.7307,-0.7313,-0.724,-0.724,-0.724,-0.724,0,-0.718,-0.7195,-0.7211,-0.7219,-0.7227,-0.7247,-0.7239,-0.7248,-0.724,-0.7237,-0.7259,-0.7261,-0.7272,-0.7278,-0.727,-0.7304,-0.7298,-0.7284,-0.7264,-0.73,-0.7314,-0.732,-0.7243,-0.7242,-0.7242,-0.7241,0,0,-0.7244,-0.7245,-0.7251,-0.7254,-0.7258,-0.7269,-0.7287,-0.7298,-0.7306,-0.7311,-0.7327,-0.7344,-0.7332,-0.7337,-0.733,-0.7344,-0.7379,-0.7329,-0.7329,-0.7338,-0.7417,-0.7428,-0.7435,-0.7371,-0.7372,-0.7373,-0.7417,0,-0.7288,-0.7319,-0.731,-0.7342,-0.7356,-0.7338,-0.7354,-0.7358,-0.7355,-0.7366,-0.7363,-0.7376,-0.7358,-0.7362,-0.7374,-0.7372,-0.7395,-0.7369,-0.7386,-0.7386,-0.7386,-0.7442,-0.7453,-0.7495,-0.7422,-0.7423,-0.7424,0,-0.7344,-0.7351,-0.7384,-0.7385,-0.739,-0.7405,-0.7413,-0.7424,-0.7427,-0.7424,-0.743,-0.742,-0.7437,-0.7416,-0.744,-0.7423,-0.7429,-0.7428,-0.743,-0.7432,-0.7408,-0.7446,-0.7507,-0.7514,-0.7432,-0.7432,-0.7431,0,-0.7388,-0.7406,-0.7428,-0.7431,-0.7432,-0.7443,-0.7444,-0.7446,-0.7452,-0.746,-0.7464,-0.7473,-0.7478,-0.7486,-0.7478,-0.7463,-0.7504,-0.7481,-0.7502,-0.7502,-0.7512,-0.7512,-0.7576,-0.7515,-0.7515,-0.7515,-0.7515,0,-0.7439,-0.746,-0.7448,-0.7462,-0.7484,-0.7473,-0.7496,-0.7495,-0.7497,-0.751,-0.7495,-0.7507,-0.7496,-0.7507,-0.7501,-0.7523,-0.7525,-0.7523,-0.7522,-0.7525,-0.7525,-0.753,-0.7527,-0.7516,-0.7516,-0.7516,-0.7515,0,-0.7492,-0.7485,-0.7508,-0.7507,-0.7507,-0.7524,-0.7522,-0.7535,-0.753,-0.7547,-0.755,-0.7544,-0.7557,-0.7549,-0.7562,-0.7558,-0.7586,-0.758,-0.7585,-0.7584,-0.7605,-0.7603,-0.7675,-0.7684,-0.7616,-0.7617,-0.7617,0,-0.7526,-0.7541,-0.7541,-0.7549,-0.755,-0.7563,-0.7569,-0.7558,-0.7566,-0.757,-0.7582,-0.7593,-0.7602,-0.7623,-0.7619,-0.7629,-0.7624,-0.7648,-0.7625,-0.7628,-0.7625,-0.7624,-0.7626,-0.7653,-0.7654,-0.7654,-0.7655,0,-0.7586,-0.7581,-0.7591,-0.76,-0.7608,-0.7614,-0.7619,-0.7626,-0.7615,-0.7624,-0.7636,-0.7643,-0.7656,-0.7667,-0.7675,-0.7676,-0.7664,-0.7662,-0.7667,-0.7672,-0.7674,-0.7674,-0.7598,-0.7661,-0.766,-0.766,-0.7659,-0.7659,-0.7631,-0.7644,-0.7646,-0.7657,-0.7659,-0.7664,-0.7676,-0.7673,-0.7683,-0.7692,-0.7685,-0.77,-0.7702,-0.7712,-0.7714,-0.7725,-0.7715,-0.7723,-0.7725,-0.7728,-0.7731,-0.7672,-0.7726,-0.7726,-0.7726,-0.7726,-0.7726,0,-0.7691,-0.7691,-0.7701,-0.7709,-0.7717,-0.7704,-0.7709,-0.7717,-0.773,-0.7733,-0.7742,-0.7756,-0.7766,-0.7763,-0.7773,-0.7783,-0.7777,-0.7785,-0.7785,-0.7786,-0.7739,-0.7733,-0.779,-0.779,-0.779,-0.779,-0.779,-0.7789,-0.7724,-0.7745,-0.774,-0.7762,-0.7762,-0.7776,-0.778,-0.7784,-0.7786,-0.7803,-0.7812,-0.7809,-0.781,-0.7819,-0.7828,-0.7827,-0.7831,-0.7842,-0.7839,-0.7795,-0.7789,-0.7783,-0.7778,-0.7842,-0.7843,-0.7884,-0.7885,-0.7885]},{"header":{"parameterUnit":"m.s-1","parameterCategory":1,"la1":30.2991,"la2":30.254,"lo1":-89.0895,"lo2":-89.0444,"dy":0.0017,"dx":0.0017,"nx":28,"ny":28,"refTime":"2024-12-02T09:00:00:Z","depth":0,"parameterNumber":3,"parameterNumberName":"V-component_of_WINDS"},"data":[0,0,0,0,0,0,0,0,0,0,0,0,0,0,0,0,0,0,0,0,0,0,0,0,0,0,0,0,0,0,0,0,0,0,0,0,0,0,0,0,0,0,0,0,0,0,0,0,0,0,0,0,0,0,0,0,0,0,-2.1201,-2.1202,0,-2.1286,-2.1286,-2.1287,-2.1303,-2.1303,-2.1302,-2.1301,-2.1385,-2.1388,-2.139,0,0,0,0,0,0,0,0,0,0,0,0,0,-2.1051,-2.1054,-2.1201,-2.1202,-2.1203,-2.1285,-2.1287,-2.1288,-2.1303,-2.1303,-2.1302,-2.1301,-2.1384,-2.1387,-2.1391,0,0,0,0,0,0,0,0,0,0,0,0,0,-2.1124,-2.1055,-2.1201,-2.1221,-2.1224,-2.1285,-2.1287,-2.1288,-2.1303,-2.1302,-2.1301,-2.1301,-2.1383,-2.1387,-2.1391,-2.1438,0,0,-2.1404,-2.1406,0,0,0,0,0,0,0,0,-2.112,-2.1129,-2.1217,-2.122,-2.1223,-2.1283,-2.1264,-2.1338,-2.1304,-2.1273,-2.1301,-2.13,-2.1352,-2.1358,-2.1376,-2.1441,-2.1445,-2.1405,-2.1407,-2.1409,-2.141,0,0,0,0,0,0,0,-2.1115,-2.1126,-2.1234,-2.1218,-2.1222,-2.1225,-2.1234,-2.1278,-2.1317,-2.1276,-2.1277,-2.1287,-2.1353,-2.1372,-2.1378,-2.1446,-2.1404,-2.1408,-2.1411,-2.1413,-2.1553,-2.1555,0,0,0,0,0,0,-2.1107,-2.1122,-2.1232,-2.1237,-2.1168,-2.1229,-2.1239,-2.1265,-2.1316,-2.1323,-2.1288,-2.1287,-2.1365,-2.1373,-2.1381,-2.1439,-2.1409,-2.1413,-2.1415,-2.1552,-2.1554,-2.1555,0,0,0,0,0,0,-2.1103,-2.1116,-2.1228,-2.118,-2.1194,-2.1232,-2.1261,-2.1267,-2.1286,-2.1326,-2.1332,-2.13,-2.1365,-2.1375,-2.1424,-2.1442,-2.1415,-2.1419,-2.1551,-2.1553,-2.1554,-2.1555,0,0,0,0,0,0,-2.1099,-2.1115,-2.1134,-2.118,-2.1197,-2.127,-2.1262,-2.1269,-2.1294,-2.1294,-2.1339,-2.1346,-2.1365,-2.1417,-2.1428,-2.1447,-2.1422,-2.1549,-2.1552,-2.1554,-2.1553,-2.1556,-2.1559,0,0,0,0,0,-2.1094,-2.113,-2.1135,-2.1148,-2.1221,-2.1271,-2.1281,-2.1303,-2.1295,-2.1314,-2.1339,-2.1344,-2.1438,-2.1422,-2.1434,-2.1455,-2.1548,-2.1551,-2.1554,-2.1552,-2.1555,-2.1559,0,0,0,0,0,0,-2.1084,-2.1136,-2.1142,-2.1195,-2.1228,-2.1274,-2.1298,-2.1306,-2.1342,-2.134,-2.1365,-2.1375,-2.1422,-2.1444,-2.1424,-2.1503,-2.1493,-2.1498,-2.1487,-2.1491,-2.1494,-2.1487,-2.1426,0,0,0,0,0,-2.1088,-2.1125,-2.1168,-2.1211,-2.1227,-2.126,-2.1282,-2.1296,-2.1332,-2.1346,-2.1375,-2.1409,-2.1446,-2.147,-2.1506,-2.1556,-2.1566,-2.1577,-2.158,-2.1582,-2.1586,-2.1614,-2.1619,-2.1564,-2.1564,-2.1564,0,0,-2.1096,-2.113,-2.1151,-2.1209,-2.1237,-2.1274,-2.1272,-2.1311,-2.1338,-2.1352,-2.1399,-2.1422,-2.1461,-2.151,-2.1533,-2.1529,-2.1603,-2.1585,-2.1587,-2.159,-2.1617,-2.1622,-2.1627,-2.1566,-2.1565,-2.1565,0,0,-2.1131,-2.116,-2.1198,-2.1226,-2.1269,-2.129,-2.1299,-2.1344,-2.1359,-2.1408,-2.1418,-2.1451,-2.1514,-2.1542,-2.1564,-2.1609,-2.1615,-2.162,-2.1634,-2.1661,-2.1666,-2.167,-2.1685,-2.1691,-2.1624,-2.1624,-2.1624,0,-2.1136,-2.1193,-2.1217,-2.1256,-2.1281,-2.1295,-2.1334,-2.136,-2.1411,-2.1428,-2.1423,-2.1503,-2.153,-2.1586,-2.1597,-2.1615,-2.1625,-2.1615,-2.1663,-2.1667,-2.1671,-2.1687,-2.1693,-2.1624,-2.1624,-2.1624,-2.1624,0,-2.1197,-2.1236,-2.1262,-2.1312,-2.134,-2.1379,-2.1407,-2.1433,-2.1444,-2.1466,-2.1514,-2.1548,-2.1591,-2.1605,-2.1617,-2.1663,-2.1659,-2.1658,-2.1649,-2.1677,-2.1691,-2.1697,-2.1625,-2.1625,-2.1624,-2.1624,0,0,-2.1227,-2.1291,-2.13,-2.1323,-2.1371,-2.1401,-2.144,-2.1483,-2.1504,-2.1539,-2.1572,-2.1625,-2.1625,-2.165,-2.1665,-2.1688,-2.1721,-2.1685,-2.1686,-2.169,-2.1774,-2.1774,-2.178,-2.1726,-2.1727,-2.1728,-2.177,0,-2.1267,-2.1338,-2.136,-2.1419,-2.1455,-2.147,-2.1504,-2.1536,-2.1557,-2.159,-2.1613,-2.1651,-2.1648,-2.1663,-2.1687,-2.1712,-2.1738,-2.1709,-2.1755,-2.1757,-2.1745,-2.1788,-2.1788,-2.1827,-2.1776,-2.1777,-2.1778,0,-2.1323,-2.136,-2.1423,-2.1466,-2.1482,-2.1512,-2.1553,-2.1585,-2.1622,-2.1636,-2.1664,-2.1677,-2.1717,-2.1705,-2.1761,-2.1741,-2.1761,-2.1776,-2.1778,-2.1783,-2.1769,-2.1793,-2.1839,-2.1845,-2.1787,-2.1786,-2.1786,0,-2.1339,-2.1404,-2.145,-2.1469,-2.1521,-2.1542,-2.1564,-2.16,-2.1624,-2.166,-2.1676,-2.1716,-2.1737,-2.1767,-2.179,-2.178,-2.1843,-2.1834,-2.1855,-2.1855,-2.1868,-2.1867,-2.1917,-2.1881,-2.1881,-2.1881,-2.1881,0,-2.1381,-2.1418,-2.1458,-2.1486,-2.1528,-2.1553,-2.1594,-2.1617,-2.1649,-2.1681,-2.1696,-2.1726,-2.1754,-2.1787,-2.1805,-2.1848,-2.1858,-2.1869,-2.1874,-2.1868,-2.1866,-2.1881,-2.1879,-2.1883,-2.1882,-2.1882,-2.1882,0,-2.1405,-2.1433,-2.1484,-2.1529,-2.1541,-2.157,-2.1609,-2.1636,-2.1658,-2.1698,-2.1709,-2.1743,-2.1783,-2.1809,-2.1859,-2.1871,-2.1918,-2.1922,-2.1906,-2.1908,-2.1928,-2.1926,-2.199,-2.1999,-2.1957,-2.1957,-2.1958,0,-2.143,-2.146,-2.1508,-2.1531,-2.1554,-2.1591,-2.1616,-2.1642,-2.1667,-2.1712,-2.1733,-2.1774,-2.1809,-2.1872,-2.19,-2.1939,-2.1943,-2.1963,-2.1949,-2.1942,-2.1943,-2.1941,-2.1944,-2.1965,-2.1966,-2.1966,-2.1966,0,-2.1472,-2.1484,-2.1521,-2.1562,-2.1592,-2.1625,-2.1658,-2.1676,-2.1707,-2.1735,-2.1777,-2.1803,-2.1855,-2.1896,-2.1937,-2.1959,-2.1967,-2.197,-2.1977,-2.1972,-2.1961,-2.1967,-2.1912,-2.1969,-2.1968,-2.1968,-2.1968,-2.1968,-2.1497,-2.1524,-2.1562,-2.1602,-2.163,-2.1661,-2.1689,-2.1715,-2.175,-2.1795,-2.1807,-2.1851,-2.1886,-2.1943,-2.1966,-2.1999,-2.1997,-2.2007,-2.2009,-2.2011,-2.2011,-2.1956,-2.2007,-2.2007,-2.2007,-2.2007,-2.2007,0,-2.1539,-2.1565,-2.1601,-2.1648,-2.1679,-2.1685,-2.1722,-2.1748,-2.1786,-2.1819,-2.1852,-2.19,-2.1939,-2.1971,-2.2011,-2.2032,-2.2036,-2.2041,-2.204,-2.2045,-2.2012,-2.2001,-2.2037,-2.2037,-2.2037,-2.2036,-2.2036,-2.2036,-2.1565,-2.161,-2.1627,-2.1686,-2.1711,-2.1754,-2.1775,-2.1803,-2.183,-2.1882,-2.1915,-2.1936,-2.1968,-2.2011,-2.2047,-2.2055,-2.2069,-2.2073,-2.2082,-2.205,-2.2047,-2.2044,-2.2034,-2.2076,-2.2076,-2.2112,-2.2113,-2.2113]}]]